Location: Newark
(15.7835°S, 47.8992°W)
Time: 09:02:33
(UTC+00:00)

ISS - Visible Passes

Search period start: 20 September 2020 00:00
Search period end: 30 September 2020 00:00
Orbit: 419 x 420 km, 51.6° (Epoch: 20 September)

Date Brightness Start Highest point End Pass type
(mag) Time Alt. Az. Time Alt. Az. Time Alt. Az.
20 Sep -3.8 07:51:51 39° NNW 07:53:00 84° NE 07:56:23 10° SE visible
21 Sep -1.1 07:07:23 21° ESE 07:07:23 21° ESE 07:08:48 10° ESE visible
22 Sep -1.9 07:55:43 18° SSW 07:55:43 18° SSW 07:57:31 10° S visible
